Home   Weather   Churu   Past weeks

Flag for India Past Weather in Churu, Rajasthan, India — Yesterday and Last 2 Weeks

75 °F


Feels Like: 78 °F
Forecast: 69 / 90 °F
Wind: 7 mph from Northwest

Location: Jaipur / Sanganer

Current Time: Oct 25, 2016 at 8:44:40 AM

Latest Report: Oct 25, 2016 at 8:00 AM

Visibility: 3 mi

Pressure: 29.89 "Hg

Humidity: 47%

Dew Point: 54 °F

Location of ChuruLocation

Past Weather in Churu — Graph


Churu Temperature Yesterday

Maximum temperature yesterday: 91 °F (at 2:30 PM)
Minimum temperature yesterday: 75 °F (at 4:00 AM)
Average temperature yesterday: 82 °F

High & Low Weather Summary for the Past Weeks

High95 °F (Oct 15, 2:00 PM)74% (Oct 11, 1:00 AM)30.01 "Hg (Oct 11, 1:00 AM)
Low66 °F (Oct 18, 6:00 AM)15% (Oct 15, 3:00 PM)29.74 "Hg (Oct 10, 2:30 PM)
Average83 °F35%29.87 "Hg
* Reported Oct 10 6:30 AM — Oct 25 7:00 AM, Churu, Weather by CustomWeather, © 2016

Note: Actual official high and low records may vary slightly from our data, if they occured in-between our weather recording intervals... More about our weather records


Churu Weather History for the Previous 24 Hours

Scroll right to see more
Time TempWeatherWind HumidityBarometerVisibility
7:00 AM
Tue, Oct 25
73 °FHaze.6 mph47%29.89 "Hg3 mi
6:00 AM75 °FHaze.8 mph44%29.86 "Hg3 mi
5:30 AM75 °FHaze.7 mph44%29.86 "Hg3 mi
5:00 AM75 °FHaze.7 mph44%29.83 "Hg3 mi
4:00 AM77 °FHaze.6 mph44%29.83 "Hg3 mi
2:00 AM77 °FHaze.5 mph44%29.86 "Hg3 mi
1:00 AM79 °FHaze.5 mph42%29.86 "Hg3 mi
12:00 AM79 °FHaze.6 mph42%29.86 "Hg2 mi
11:30 PM
Mon, Oct 24
79 °FHaze.5 mph39%29.86 "Hg2 mi
11:00 PM81 °FHaze.7 mph37%29.86 "Hg2 mi
10:00 PM81 °FHaze.7 mph37%29.86 "Hg2 mi
9:30 PM81 °FHaze.7 mph37%29.86 "Hg2 mi
9:00 PM81 °FHaze.7 mph37%29.86 "Hg2 mi
8:30 PM81 °FHaze.6 mph37%29.86 "Hg2 mi
8:00 PM81 °FHaze.5 mph37%29.86 "Hg2 mi
7:30 PM81 °FHaze.3 mph37%29.86 "Hg2 mi
7:00 PM82 °FHaze.3 mph35%29.83 "Hg2 mi
6:00 PM84 °FPassing clouds.6 mph31%29.83 "Hg2 mi
5:00 PM88 °FPassing clouds.8 mph25%29.83 "Hg4 mi
4:30 PM90 °FPassing clouds.8 mph26%29.83 "Hg4 mi
4:00 PM90 °FPassing clouds.12 mph26%29.83 "Hg4 mi
3:00 PM90 °FPassing clouds.10 mph24%29.83 "Hg4 mi
2:30 PM91 °FPassing clouds.9 mph23%29.83 "Hg4 mi
2:00 PM90 °FPassing clouds.12 mph24%29.86 "Hg4 mi
1:00 PM90 °FPassing clouds.9 mph26%29.89 "Hg4 mi
12:30 PM88 °FPassing clouds.8 mph31%29.89 "Hg4 mi
12:00 PM88 °FPassing clouds.10 mph31%29.89 "Hg4 mi
11:30 AM88 °FClear.8 mph33%29.92 "Hg4 mi
11:00 AM86 °FHaze.8 mph35%29.92 "Hg3 mi
10:30 AM84 °FHaze.8 mph37%29.92 "Hg3 mi
10:00 AM84 °FHaze.8 mph37%29.95 "Hg3 mi
9:30 AM82 °FHaze.8 mph40%29.92 "Hg3 mi
9:00 AM81 °FHaze.8 mph42%29.92 "Hg3 mi
8:30 AM79 °FHaze.8 mph45%29.92 "Hg3 mi
8:00 AM77 °FHaze.7 mph44%29.89 "Hg2 mi
Weather by CustomWeather, © 2016

See weather overviewHow to use our weather pages